Drummond Island, MI

3:16 AM EDT on April 30, 2017 (GMT -0400)
Drummond Island

Weather History for KDRM - September, 2013

Change the Weather History Date:

Saturday, September 21, 2013

  Actual Average (KCIU) Record (KCIU)
Temperature  
Mean Temperature 52 °F -  
Max Temperature 59 °F 61 °F 77 °F (2005)
Min Temperature 46 °F 41 °F 25 °F (1981)
Degree Days  
Heating Degree Days 12    
Growing Degree Days 2 (Base 50)    
Moisture  
Dew Point 45 °F    
Average Humidity 73    
Maximum Humidity 88    
Minimum Humidity 58    
Precipitation  
Precipitation 0.00 in - - ()
Sea Level Pressure  
Sea Level Pressure 29.74 in    
Wind  
Wind Speed 8 mph (NW)    
Max Wind Speed 15 mph    
Max Gust Speed 28 mph    
Visibility 10 miles    
Events Rain    
Averages and records for this station are not official NWS values.
T = Trace of Precipitation, MM = Missing Value Source: NWS Daily Summary

Daily Weather History Graph

Daily Weather History Graph

Search for Another Location

Airport or City:

Trip Planner

Search our weather history database for the weather conditions in past years. The results will help you decide how hot, cold, wet, or windy it might be!

Date:

Astronomy

Sep. 21, 2013 Rise Set
Actual Time 7:20 AM EDT 7:34 PM EDT
Civil Twilight 6:51 AM EDT 8:03 PM EDT
Nautical Twilight 6:15 AM EDT 8:38 PM EDT
Astronomical Twilight 5:39 AM EDT 9:14 PM EDT
Moon 8:33 PM EDT (9/21) 9:48 AM EDT (9/21)
Length of Visible Light 13h 12m
Length of Day
12h 13m
Waning Gibbous, 94% of the Moon is Illuminated
Sep 21
Waning Gibbous
Sep 26
Last Quarter
Oct 4
New
Oct 11
First Quarter
Oct 18
Full

Hourly Weather History & Observations

Time (EDT) Temp. Dew Point Humidity Pressure Visibility Wind Dir Wind Speed Gust Speed Precip Events Conditions
12:15 AM 59.0 °F 55.6 °F 88% 29.69 in 10.0 mi NW 8.1 mph - N/A   Overcast
12:35 AM 58.6 °F 55.0 °F 88% 29.69 in 10.0 mi NW 4.6 mph - N/A   Overcast
12:55 AM 58.3 °F 54.7 °F 88% 29.68 in 10.0 mi NW 6.9 mph - N/A   Overcast
1:16 AM 58.1 °F 54.5 °F 88% 29.68 in 10.0 mi WNW 5.8 mph - N/A   Overcast
1:35 AM 57.6 °F 54.1 °F 88% 29.68 in 10.0 mi NW 8.1 mph - N/A   Overcast
1:55 AM 57.2 °F 53.6 °F 88% 29.68 in 10.0 mi NNW 5.8 mph - N/A   Overcast
2:15 AM 56.8 °F 53.1 °F 87% 29.68 in 10.0 mi NW 6.9 mph - N/A   Overcast
2:35 AM 56.7 °F 52.2 °F 85% 29.69 in 10.0 mi WNW 4.6 mph - N/A   Overcast
2:55 AM 56.3 °F 51.3 °F 83% 29.69 in 10.0 mi NW 4.6 mph - N/A   Overcast
3:15 AM 55.9 °F 50.9 °F 83% 29.69 in 10.0 mi NW 6.9 mph - N/A   Overcast
3:35 AM 55.6 °F 50.2 °F 82% 29.69 in 10.0 mi NW 6.9 mph - N/A   Mostly Cloudy
3:55 AM 55.8 °F 50.7 °F 83% 29.69 in 10.0 mi NW 8.1 mph - N/A   Overcast
4:15 AM 55.4 °F 50.4 °F 83% 29.69 in 10.0 mi NW 8.1 mph - N/A   Overcast
4:35 AM 54.7 °F 49.6 °F 83% 29.68 in 10.0 mi NW 10.4 mph - N/A   Overcast
4:55 AM 54.7 °F 49.3 °F 82% 29.69 in 10.0 mi WNW 10.4 mph - N/A   Overcast
5:15 AM 54.1 °F 49.1 °F 83% 29.69 in 10.0 mi NW 6.9 mph - N/A   Overcast
5:35 AM 54.1 °F 47.1 °F 77% 29.69 in 10.0 mi NW 6.9 mph - N/A   Overcast
5:55 AM 53.8 °F 46.6 °F 77% 29.69 in 10.0 mi NW 9.2 mph - N/A   Overcast
6:15 AM 52.9 °F 46.4 °F 79% 29.69 in 10.0 mi NW 5.8 mph - N/A   Mostly Cloudy
6:35 AM 52.7 °F 46.4 °F 79% 29.69 in 10.0 mi NW 6.9 mph - N/A   Clear
6:55 AM 52.7 °F 45.7 °F 77% 29.69 in 10.0 mi NW 9.2 mph 16.1 mph N/A   Scattered Clouds
7:15 AM 52.3 °F 45.7 °F 78% 29.69 in 10.0 mi NW 10.4 mph - N/A   Clear
7:35 AM 52.2 °F 45.5 °F 78% 29.70 in 10.0 mi NW 9.2 mph 16.1 mph N/A   Clear
7:55 AM 52.2 °F 45.3 °F 78% 29.70 in 10.0 mi NW 6.9 mph 16.1 mph N/A   Clear
8:15 AM 51.8 °F 45.3 °F 79% 29.70 in 10.0 mi NW 11.5 mph 19.6 mph N/A   Clear
8:35 AM 52.5 °F 45.3 °F 76% 29.70 in 10.0 mi NW 10.4 mph 17.3 mph N/A   Clear
8:55 AM 53.8 °F 45.5 °F 74% 29.70 in 10.0 mi NW 10.4 mph 17.3 mph N/A   Clear
9:15 AM 54.5 °F 44.8 °F 70% 29.71 in 10.0 mi WNW 9.2 mph 21.9 mph N/A   Clear
9:35 AM 54.9 °F 44.6 °F 68% 29.71 in 10.0 mi NW 11.5 mph 23.0 mph N/A   Clear
9:55 AM 55.9 °F 44.8 °F 66% 29.71 in 10.0 mi NW 9.2 mph 17.3 mph N/A   Scattered Clouds
10:15 AM 55.4 °F 43.7 °F 65% 29.72 in 10.0 mi WNW 8.1 mph 23.0 mph N/A   Mostly Cloudy
10:35 AM 55.6 °F 42.6 °F 62% 29.72 in 10.0 mi NW 8.1 mph 18.4 mph N/A   Overcast
10:55 AM 54.7 °F 42.1 °F 62% 29.72 in 10.0 mi NW 9.2 mph 23.0 mph N/A   Overcast
11:15 AM 54.5 °F 42.8 °F 65% 29.72 in 10.0 mi WNW 8.1 mph 16.1 mph N/A   Overcast
11:35 AM 54.7 °F 43.9 °F 67% 29.72 in 10.0 mi WNW 8.1 mph 20.7 mph N/A   Overcast
11:55 AM 53.8 °F 44.1 °F 70% 29.73 in 10.0 mi NW 6.9 mph 21.9 mph N/A   Overcast
12:15 PM 54.1 °F 44.8 °F 71% 29.73 in 10.0 mi WNW 8.1 mph - N/A   Overcast
12:35 PM 54.3 °F 44.6 °F 70% 29.73 in 10.0 mi NW 9.2 mph 20.7 mph N/A   Overcast
12:55 PM 55.0 °F 43.2 °F 64% 29.73 in 10.0 mi WNW 9.2 mph 20.7 mph N/A   Overcast
1:16 PM 56.7 °F 41.9 °F 58% 29.73 in 10.0 mi NW 9.2 mph 20.7 mph N/A   Mostly Cloudy
1:35 PM 54.9 °F 42.8 °F 64% 29.73 in 10.0 mi NW 10.4 mph 19.6 mph N/A   Mostly Cloudy
1:55 PM 54.7 °F 43.0 °F 65% 29.73 in 10.0 mi WNW 10.4 mph 18.4 mph N/A   Mostly Cloudy
2:15 PM 56.1 °F 43.9 °F 64% 29.73 in 10.0 mi NW 8.1 mph 17.3 mph N/A   Mostly Cloudy
2:35 PM 51.8 °F 45.5 °F 79% 29.74 in 7.0 mi NW 8.1 mph 18.4 mph N/A Rain Light Rain
2:55 PM 52.3 °F 44.8 °F 75% 29.73 in 10.0 mi NW 5.8 mph - N/A   Overcast
3:15 PM 51.8 °F 43.7 °F 74% 29.75 in 10.0 mi NW 9.2 mph 16.1 mph N/A   Overcast
3:35 PM 52.7 °F 43.0 °F 70% 29.75 in 10.0 mi NNW 9.2 mph 16.1 mph N/A   Overcast
3:55 PM 53.1 °F 42.3 °F 67% 29.75 in 10.0 mi NW 6.9 mph - N/A   Overcast
4:15 PM 55.4 °F 41.0 °F 58% 29.74 in 10.0 mi WNW 11.5 mph 18.4 mph N/A   Mostly Cloudy
4:35 PM 54.3 °F 41.4 °F 62% 29.75 in 10.0 mi WNW 13.8 mph 20.7 mph N/A   Mostly Cloudy
4:55 PM 55.4 °F 41.9 °F 60% 29.75 in 10.0 mi WNW 12.7 mph 21.9 mph N/A   Mostly Cloudy
5:15 PM 55.0 °F 40.6 °F 58% 29.75 in 10.0 mi NW 15.0 mph 27.6 mph N/A   Mostly Cloudy
5:35 PM 52.2 °F 40.1 °F 64% 29.76 in 10.0 mi NW 8.1 mph 19.6 mph N/A   Mostly Cloudy
5:55 PM 51.8 °F 40.3 °F 65% 29.77 in 10.0 mi WNW 11.5 mph 19.6 mph N/A   Mostly Cloudy
6:15 PM 51.8 °F 40.8 °F 66% 29.77 in 10.0 mi NNW 11.5 mph 18.4 mph N/A   Overcast
6:35 PM 52.7 °F 38.8 °F 59% 29.78 in 10.0 mi NW 12.7 mph 23.0 mph N/A   Overcast
6:55 PM 50.9 °F 38.8 °F 63% 29.78 in 10.0 mi NW 11.5 mph 21.9 mph N/A   Overcast
7:15 PM 50.4 °F 39.6 °F 66% 29.79 in 10.0 mi NW 8.1 mph 18.4 mph N/A   Overcast
7:35 PM 50.0 °F 39.6 °F 67% 29.79 in 10.0 mi NW 11.5 mph 19.6 mph N/A   Mostly Cloudy
7:55 PM 50.0 °F 39.9 °F 68% 29.80 in 10.0 mi NW 9.2 mph 19.6 mph N/A   Overcast
8:15 PM 49.3 °F 40.3 °F 71% 29.81 in 10.0 mi NW 9.2 mph 19.6 mph N/A   Mostly Cloudy
8:35 PM 48.9 °F 40.3 °F 72% 29.81 in 10.0 mi NW 11.5 mph 19.6 mph N/A   Mostly Cloudy
8:55 PM 48.6 °F 40.3 °F 73% 29.82 in 10.0 mi NNW 10.4 mph 18.4 mph N/A   Scattered Clouds
9:15 PM 48.4 °F 40.3 °F 74% 29.82 in 10.0 mi NNW 8.1 mph 16.1 mph N/A   Scattered Clouds
9:35 PM 48.4 °F 40.3 °F 74% 29.83 in 10.0 mi NNW 9.2 mph 16.1 mph N/A   Clear
9:55 PM 48.2 °F 41.0 °F 76% 29.83 in 10.0 mi NNW 8.1 mph - N/A   Clear
10:15 PM 48.2 °F 40.5 °F 75% 29.83 in 10.0 mi NNW 6.9 mph - N/A   Scattered Clouds
10:35 PM 47.5 °F 41.0 °F 78% 29.84 in 10.0 mi NNW 6.9 mph - N/A   Scattered Clouds
10:55 PM 47.3 °F 41.2 °F 79% 29.85 in 10.0 mi NNW 4.6 mph - N/A   Mostly Cloudy
11:15 PM 47.8 °F 40.5 °F 76% 29.85 in 10.0 mi NNW 6.9 mph - N/A   Overcast
11:35 PM 46.9 °F 40.6 °F 79% 29.86 in 10.0 mi NNW 5.8 mph - N/A   Mostly Cloudy
11:55 PM 47.3 °F 40.8 °F 78% 29.86 in 10.0 mi North 6.9 mph - N/A   Mostly Cloudy